TimePDT,TemperatureF,Dew PointF,Humidity,Sea Level PressureIn,VisibilityMPH,Wind Direction,Wind SpeedMPH,Gust SpeedMPH,PrecipitationIn,Events,Conditions,WindDirDegrees,DateUTC
12:54 AM,-9999,-9999,N/A,29.95,-9999.0,West,4.6,-,N/A,,Clear,280,2013-03-21 07:54:00
1:54 AM,-9999,-9999,N/A,29.94,-9999.0,Calm,Calm,-,N/A,,Clear,0,2013-03-21 08:54:00
2:54 AM,-9999,-9999,N/A,29.93,-9999.0,Calm,Calm,-,N/A,,Clear,0,2013-03-21 09:54:00
3:54 AM,-9999,-9999,N/A,29.92,-9999.0,Calm,Calm,-,N/A,,Clear,0,2013-03-21 10:54:00
4:54 AM,-9999,-9999,N/A,29.92,-9999.0,Calm,Calm,-,N/A,,Clear,0,2013-03-21 11:54:00
5:54 AM,57.4,46.6,67,29.91,6.0,Calm,Calm,-,N/A,,Haze,0,2013-03-21 12:54:00
6:54 AM,52.0,46.9,83,29.91,7.0,Calm,Calm,-,N/A,,Mostly Cloudy,0,2013-03-21 13:54:00
7:54 AM,53.2,46.6,78,29.91,7.0,NE,3.5,-,N/A,,Mostly Cloudy,50,2013-03-21 14:54:00
8:54 AM,57.4,50.2,77,29.91,7.0,East,3.5,-,N/A,,Mostly Cloudy,90,2013-03-21 15:54:00
9:54 AM,60.1,52.7,77,29.93,7.0,South,6.9,-,N/A,,Mostly Cloudy,190,2013-03-21 16:54:00
10:54 AM,60.8,53.1,76,29.93,7.0,South,12.7,-,N/A,,Mostly Cloudy,190,2013-03-21 17:54:00
11:54 AM,61.7,53.1,73,29.93,7.0,SSW,12.7,-,N/A,,Scattered Clouds,210,2013-03-21 18:54:00
12:54 PM,61.0,53.2,76,29.92,7.0,West,13.8,20.7,N/A,,Scattered Clouds,260,2013-03-21 19:54:00
1:54 PM,60.4,52.2,74,29.89,7.0,WSW,10.4,-,N/A,,Partly Cloudy,240,2013-03-21 20:54:00
2:54 PM,60.4,52.7,76,29.86,7.0,West,12.7,-,N/A,,Partly Cloudy,260,2013-03-21 21:54:00
3:54 PM,62.4,53.4,72,29.85,7.0,West,18.4,24.2,N/A,,Clear,260,2013-03-21 22:54:00
4:54 PM,61.7,52.7,72,29.84,7.0,West,13.8,23.0,N/A,,Clear,260,2013-03-21 23:54:00
5:54 PM,59.2,50.4,73,29.83,7.0,West,13.8,-,N/A,,Clear,260,2013-03-22 00:54:00
6:54 PM,57.9,50.9,77,29.83,7.0,West,6.9,-,N/A,,Clear,280,2013-03-22 01:54:00
7:54 PM,57.7,50.9,78,29.83,7.0,West,3.5,-,N/A,,Clear,260,2013-03-22 02:54:00
8:54 PM,57.7,51.8,81,29.84,7.0,WNW,4.6,-,N/A,,Clear,300,2013-03-22 03:54:00
9:54 PM,55.8,49.8,80,29.85,7.0,Calm,Calm,-,N/A,,Clear,0,2013-03-22 04:54:00
10:54 PM,55.2,48.6,78,29.86,7.0,Calm,Calm,-,N/A,,Clear,0,2013-03-22 05:54:00
11:54 PM,-9999,-9999,N/A,29.85,-9999.0,Calm,Calm,-,N/A,,Clear,0,2013-03-22 06:54:00